{"data":{"norad_id":41603,"epoch":"2026-09-20T04:57:55.335744Z","epoch_age_seconds":39740,"freshness":"FRESH","line1":"1 41603U 16040E   26263.20689046  .00002433  00000+0  77054-4 0  9997","line2":"2 41603  97.1574 256.3061 0011338  42.7812 317.4312 15.33623958569378","mean_motion":15.33623958,"eccentricity":0.0011338,"inclination_deg":97.1574,"raan_deg":256.3061,"arg_perigee_deg":42.7812,"mean_anomaly_deg":317.4312,"bstar":7.7054e-5,"rev_number":56937,"period_min":93.895246777307,"perigee_km":457.25201220972,"apogee_km":472.76953410013,"semimajor_km":6843.1477731549,"source":"CELESTRAK","updated_at":"2026-09-20T09:00:33.967086Z"}}